Previsão horária em Abisynia

Hoje, 11 Abril, Domingo

Tempo Temperatura Precipitação Vento Pressão Humidade
00:00 +7°C° 0 mm 3 m/s 747 mmHg 75%
01:00 +5°C° 0 mm 3 m/s 747 mmHg 76%
02:00 +5°C° 0 mm 3 m/s 747 mmHg 77%
03:00 +5°C° 0 mm 3 m/s 747 mmHg 77%
04:00 +5°C° 0 mm 3 m/s 747 mmHg 77%
05:00 +4°C° 0 mm 3 m/s 747 mmHg 77%
06:00 +5°C° 0 mm 4 m/s 748 mmHg 74%
07:00 +7°C° 0 mm 4 m/s 748 mmHg 70%
08:00 +8°C° 0 mm 4 m/s 748 mmHg 67%
09:00 +11°C° 0 mm 4 m/s 748 mmHg 61%
10:00 +12°C° 0 mm 5 m/s 748 mmHg 55%
11:00 +14°C° 0 mm 6 m/s 748 mmHg 48%
12:00 +15°C° 0 mm 6 m/s 748 mmHg 46%
13:00 +16°C° 0 mm 6 m/s 748 mmHg 44%
14:00 +16°C° 0 mm 6 m/s 747 mmHg 41%
15:00 +16°C° 0 mm 6 m/s 747 mmHg 44%
16:00 +16°C° 0 mm 6 m/s 747 mmHg 46%
17:00 +16°C° 0 mm 5 m/s 747 mmHg 48%
18:00 +14°C° 0 mm 5 m/s 747 mmHg 52%
19:00 +12°C° 0 mm 5 m/s 747 mmHg 55%
20:00 +10°C° 0 mm 5 m/s 747 mmHg 59%
21:00 +9°C° 0 mm 5 m/s 748 mmHg 58%
22:00 +9°C° 0 mm 5 m/s 748 mmHg 58%
23:00 +8°C° 0 mm 5 m/s 748 mmHg 57%

Amanhã, 12 Abril, Segunda-feira

Tempo Temperatura Precipitação Vento Pressão Humidade
00:00 +8°C° 0 mm 5 m/s 747 mmHg 58%
01:00 +7°C° 0 mm 5 m/s 747 mmHg 59%
02:00 +7°C° 0 mm 4 m/s 747 mmHg 61%
03:00 +6°C° 0 mm 4 m/s 747 mmHg 63%
04:00 +7°C° 0 mm 3 m/s 747 mmHg 65%
05:00 +5°C° 0 mm 3 m/s 747 mmHg 68%
06:00 +7°C° 0 mm 3 m/s 747 mmHg 69%
07:00 +7°C° 0 mm 4 m/s 747 mmHg 69%
08:00 +7°C° 0 mm 4 m/s 747 mmHg 70%
09:00 +10°C° 0 mm 4 m/s 746 mmHg 69%
10:00 +11°C° 0 mm 4 m/s 746 mmHg 68%
11:00 +12°C° 0 mm 4 m/s 746 mmHg 67%
12:00 +13°C° 0 mm 5 m/s 746 mmHg 62%
13:00 +15°C° 0 mm 5 m/s 745 mmHg 58%
14:00 +16°C° 0 mm 5 m/s 745 mmHg 53%
15:00 +15°C° 0 mm 4 m/s 745 mmHg 58%
16:00 +14°C° 0 mm 3 m/s 745 mmHg 62%
17:00 +14°C° 0 mm 2 m/s 745 mmHg 67%
18:00 +14°C° 0.1 mm 2 m/s 745 mmHg 70%
19:00 +13°C° 0.1 mm 2 m/s 745 mmHg 73%
20:00 +13°C° 0.1 mm 1 m/s 745 mmHg 76%
21:00 +12°C° 0 mm 2 m/s 745 mmHg 78%
22:00 +12°C° 0 mm 2 m/s 745 mmHg 79%
23:00 +12°C° 0 mm 2 m/s 745 mmHg 81%

Depois de amanhã, 13 Abril, Terça-feira

Tempo Temperatura Precipitação Vento Pressão Humidade
00:00 +12°C° 0.1 mm 2 m/s 745 mmHg 83%
01:00 +11°C° 0.1 mm 1 m/s 745 mmHg 85%
02:00 +11°C° 0.1 mm 1 m/s 745 mmHg 88%
03:00 +11°C° 0 mm 1 m/s 745 mmHg 88%
04:00 +9°C° 0 mm 2 m/s 745 mmHg 89%
05:00 +9°C° 0 mm 2 m/s 745 mmHg 90%
06:00 +9°C° 0 mm 2 m/s 745 mmHg 87%
07:00 +10°C° 0 mm 2 m/s 745 mmHg 85%
08:00 +10°C° 0 mm 2 m/s 745 mmHg 83%
09:00 +12°C° 0 mm 2 m/s 745 mmHg 79%
10:00 +13°C° 0 mm 2 m/s 745 mmHg 75%
11:00 +14°C° 0 mm 2 m/s 745 mmHg 71%
12:00 +13°C° 0 mm 3 m/s 745 mmHg 71%
13:00 +12°C° 0 mm 4 m/s 745 mmHg 71%
14:00 +12°C° 0 mm 5 m/s 745 mmHg 71%
15:00 +12°C° 0 mm 5 m/s 744 mmHg 74%
16:00 +10°C° 0 mm 6 m/s 744 mmHg 76%
17:00 +9°C° 0 mm 6 m/s 744 mmHg 78%
18:00 +8°C° 0 mm 6 m/s 744 mmHg 81%
19:00 +8°C° 0 mm 6 m/s 744 mmHg 83%
20:00 +7°C° 0 mm 5 m/s 744 mmHg 85%
21:00 +6°C° 0 mm 5 m/s 743 mmHg 86%
22:00 +6°C° 0 mm 5 m/s 743 mmHg 87%
23:00 +5°C° 0 mm 5 m/s 743 mmHg 88%

14 Abril, Quarta-feira

Tempo Temperatura Precipitação Vento Pressão Humidade
00:00 +5°C° 0 mm 5 m/s 743 mmHg 89%
01:00 +5°C° 0 mm 5 m/s 743 mmHg 89%
02:00 +3°C° 0 mm 5 m/s 742 mmHg 90%
03:00 +3°C° 0 mm 5 m/s 742 mmHg 90%
04:00 +3°C° 0 mm 5 m/s 742 mmHg 90%
05:00 +4°C° 0 mm 4 m/s 742 mmHg 91%
06:00 +4°C° 0 mm 4 m/s 742 mmHg 91%
07:00 +4°C° 0 mm 4 m/s 742 mmHg 91%
08:00 +4°C° 0 mm 4 m/s 742 mmHg 90%
09:00 +5°C° 0 mm 4 m/s 742 mmHg 89%
10:00 +5°C° 0 mm 4 m/s 742 mmHg 88%
11:00 +6°C° 0 mm 4 m/s 741 mmHg 87%
12:00 +6°C° 0.1 mm 4 m/s 741 mmHg 87%
13:00 +7°C° 0.1 mm 4 m/s 741 mmHg 86%
14:00 +8°C° 0.1 mm 4 m/s 741 mmHg 85%
15:00 +7°C° 0.7 mm 4 m/s 740 mmHg 88%
16:00 +7°C° 0.7 mm 4 m/s 740 mmHg 91%
17:00 +7°C° 0.7 mm 4 m/s 740 mmHg 94%
18:00 +6°C° 0.5 mm 4 m/s 740 mmHg 95%
19:00 +6°C° 0.5 mm 4 m/s 740 mmHg 95%
20:00 +5°C° 0.5 mm 4 m/s 741 mmHg 95%
21:00 +5°C° 0.3 mm 4 m/s 741 mmHg 96%
22:00 +5°C° 0.3 mm 3 m/s 741 mmHg 96%
23:00 +5°C° 0.3 mm 3 m/s 741 mmHg 96%

15 Abril, Quinta-feira

Tempo Temperatura Precipitação Vento Pressão Humidade
00:00 +5°C° 0.3 mm 3 m/s 741 mmHg 97%
01:00 +5°C° 0.3 mm 2 m/s 741 mmHg 97%
02:00 +5°C° 0.3 mm 2 m/s 741 mmHg 97%
03:00 +5°C° 0.1 mm 2 m/s 741 mmHg 97%
04:00 +5°C° 0.1 mm 2 m/s 741 mmHg 97%
05:00 +5°C° 0.1 mm 2 m/s 741 mmHg 96%
06:00 +6°C° 0.3 mm 1 m/s 741 mmHg 96%
07:00 +6°C° 0.3 mm 1 m/s 741 mmHg 96%
08:00 +6°C° 0.3 mm 1 m/s 742 mmHg 96%
09:00 +7°C° 0.1 mm 1 m/s 742 mmHg 92%
10:00 +7°C° 0.1 mm 2 m/s 742 mmHg 89%
11:00 +8°C° 0.1 mm 2 m/s 742 mmHg 86%
12:00 +9°C° 0.1 mm 2 m/s 742 mmHg 83%
13:00 +9°C° 0.1 mm 2 m/s 742 mmHg 80%
14:00 +10°C° 0.1 mm 3 m/s 743 mmHg 77%
15:00 +10°C° 0.1 mm 3 m/s 743 mmHg 77%
16:00 +10°C° 0.1 mm 3 m/s 743 mmHg 77%
17:00 +10°C° 0.1 mm 2 m/s 743 mmHg 77%
18:00 +9°C° 0.1 mm 3 m/s 743 mmHg 82%
19:00 +8°C° 0.1 mm 3 m/s 743 mmHg 88%
20:00 +7°C° 0.1 mm 3 m/s 743 mmHg 93%
21:00 +6°C° 0.2 mm 4 m/s 744 mmHg 93%
22:00 +6°C° 0.2 mm 4 m/s 744 mmHg 93%
23:00 +6°C° 0.2 mm 4 m/s 744 mmHg 93%

16 Abril, Sexta-feira

Tempo Temperatura Precipitação Vento Pressão Humidade
00:00 +6°C° 0 mm 4 m/s 744 mmHg 92%
01:00 +5°C° 0 mm 4 m/s 744 mmHg 92%
02:00 +5°C° 0 mm 5 m/s 744 mmHg 92%
03:00 +4°C° 0 mm 4 m/s 744 mmHg 92%
04:00 +4°C° 0 mm 4 m/s 744 mmHg 92%
05:00 +4°C° 0 mm 4 m/s 744 mmHg 91%
06:00 +4°C° 0.2 mm 4 m/s 745 mmHg 92%
07:00 +4°C° 0.2 mm 4 m/s 745 mmHg 93%
08:00 +4°C° 0.2 mm 4 m/s 745 mmHg 93%
09:00 +4°C° 0.1 mm 4 m/s 746 mmHg 93%
10:00 +4°C° 0.1 mm 4 m/s 746 mmHg 93%
11:00 +5°C° 0.1 mm 4 m/s 747 mmHg 92%
12:00 +5°C° 0.2 mm 4 m/s 747 mmHg 92%
13:00 +5°C° 0.2 mm 4 m/s 747 mmHg 92%
14:00 +5°C° 0.2 mm 5 m/s 748 mmHg 92%
15:00 +5°C° 0.1 mm 5 m/s 748 mmHg 90%
16:00 +5°C° 0.1 mm 5 m/s 749 mmHg 88%
17:00 +5°C° 0.1 mm 5 m/s 749 mmHg 86%
18:00 +3°C° 0 mm 5 m/s 750 mmHg 86%
19:00 +4°C° 0 mm 4 m/s 750 mmHg 85%
20:00 +4°C° 0 mm 4 m/s 750 mmHg 85%
21:00 +4°C° 0 mm 4 m/s 751 mmHg 84%
22:00 +4°C° 0 mm 3 m/s 751 mmHg 83%
23:00 +4°C° 0 mm 3 m/s 751 mmHg 82%
Mostrar mais